map of TZX home
Great Circle Mapper logo
TZX - Airport
Location
City:  Trabzon, Trabzon, Turkey
Name:Trabzon AB
ICAO:LTCG
IATA:TZX

Details
Type:Airport (Aerodrome, Airfield)
Use:Public/Civil, Military
Latitude:4059'42"N (40.995108)
Longitude:3947'23"E (39.789728)
Datum:WGS 1984
Elevation:104 ft (32 m)
Variation:6.21E (WMM2015 magnetic declination)
0.09 annual change
Runways:1
Longest:8661 × 148 ft (2640 × 45 m), paved

Time
Time Zone:UTC+2 (DST+3)
Local Time:

Weather
METAR:LTCG 010250Z 22008KT 9999 BKN035 24/16 Q1013 NOSIG RMK RWY29 26003KT 230V340
TAF:LTCG 310440Z 3106/0106 29012KT 9999 BKN035 BKN080
TEMPO 3106/3109 -SHRA SCT008 BKN028 PROB40
TEMPO 3109/3113 3500 TSRA SCT020CB BKN028
TEMPO 3113/3117 -TSRA FEW020CB BKN028
BECMG 3117/3119 VRB02KT SCT035 BKN100

Related Locations
Nearby:
Farthest:RVV: 11176 mi / 17986 km
Raivavae, Tubuai Islands, Austral Islands, PF

Find:

   beyond  
but within

Other Information
Maps:
NOTAMs:
Links:
Sources:

  
flag of Turkey   

Sectional Chart

Flight Planning
at skyvector.com

Satellite Image

Google Maps Satellite view

 

Copyright © 2004-2016 Karl L. Swartz. All rights reserved.
The Great Circle Mapper name and logo are trademarks of the Great Circle Mapper.
All other trademarks mentioned herein belong to their respective owners.
Please see credits for attibutions and further copyright information.

  Follow gcmap on Facebook Follow gcmap on Twitter Follow gcmap on Google+ GCmap on LinkedIn

hCard Microformat

Geo Microformat